Time,TemperatureF,DewpointF,PressureIn,WindDirection,WindDirectionDegrees,WindSpeedMPH,WindSpeedGustMPH,Humidity,HourlyPrecipIn,Conditions,Clouds,dailyrainin,SoftwareType,DateUTC
2013-03-29 00:00:00,32.4,14.5,30.27,NE,50,0.0,0.0,47,0.00,,SCT,0.00,VWS V14.01,2013-03-29 04:00:00,
2013-03-29 00:05:00,32.4,14.5,30.27,NE,50,0.0,0.0,47,0.00,,SCT,0.00,VWS V14.01,2013-03-29 04:05:00,
2013-03-29 00:10:00,32.3,14.3,30.27,NE,50,0.0,0.0,47,0.00,,SCT,0.00,VWS V14.01,2013-03-29 04:10:00,
2013-03-29 00:15:00,31.9,14.0,30.27,NE,50,0.0,0.0,47,0.00,,SCT,0.00,VWS V14.01,2013-03-29 04:15:00,
2013-03-29 00:20:00,31.7,13.8,30.27,NE,50,0.0,0.0,47,0.00,,SCT,0.00,VWS V14.01,2013-03-29 04:20:00,
2013-03-29 00:25:00,31.7,14.3,30.27,NE,50,0.0,0.0,48,0.00,,SCT,0.00,VWS V14.01,2013-03-29 04:25:00,
2013-03-29 00:30:00,32.1,14.6,30.27,NE,50,0.0,0.0,48,0.00,,SCT,0.00,VWS V14.01,2013-03-29 04:30:00,
2013-03-29 00:35:00,32.1,14.6,30.27,NE,50,0.0,0.0,48,0.00,,SCT,0.00,VWS V14.01,2013-03-29 04:35:00,
2013-03-29 00:40:00,31.7,14.3,30.27,NE,50,0.0,0.0,48,0.00,,SCT,0.00,VWS V14.01,2013-03-29 04:40:00,
2013-03-29 00:45:00,31.5,14.6,30.27,NE,50,0.0,0.0,49,0.00,,SCT,0.00,VWS V14.01,2013-03-29 04:45:00,
2013-03-29 00:50:00,31.2,14.3,30.27,NE,50,0.0,0.0,49,0.00,,SCT,0.00,VWS V14.01,2013-03-29 04:50:00,
2013-03-29 00:55:00,31.2,14.3,30.27,NE,50,0.0,0.0,49,0.00,,SCT,0.00,VWS V14.01,2013-03-29 04:55:00,
2013-03-29 01:00:00,30.6,13.8,30.27,NE,50,0.0,0.0,49,0.00,,SCT,0.00,VWS V14.01,2013-03-29 05:00:00,
2013-03-29 01:05:00,30.5,13.6,30.27,NE,50,0.0,0.0,49,0.00,,SCT,0.00,VWS V14.01,2013-03-29 05:05:00,
2013-03-29 01:10:00,30.1,13.3,30.27,NE,50,0.0,0.0,49,0.00,,SCT,0.00,VWS V14.01,2013-03-29 05:10:00,
2013-03-29 01:15:00,30.1,13.3,30.27,NE,50,0.0,0.0,49,0.00,,SCT,0.00,VWS V14.01,2013-03-29 05:15:00,
2013-03-29 01:20:00,30.1,13.3,30.27,NE,50,0.0,0.0,49,0.00,,SCT,0.00,VWS V14.01,2013-03-29 05:20:00,
2013-03-29 01:25:00,30.1,13.3,30.27,NE,50,0.0,0.0,49,0.00,,SCT,0.00,VWS V14.01,2013-03-29 05:25:00,
2013-03-29 01:30:00,30.1,13.3,30.27,NE,50,0.0,0.0,49,0.00,,SCT,0.00,VWS V14.01,2013-03-29 05:30:00,
2013-03-29 01:35:00,30.1,13.3,30.27,NE,50,0.0,0.0,49,0.00,,SCT,0.00,VWS V14.01,2013-03-29 05:35:00,
2013-03-29 01:40:00,30.1,13.3,30.27,NE,50,0.0,0.0,49,0.00,,SCT,0.00,VWS V14.01,2013-03-29 05:40:00,
2013-03-29 01:45:00,30.1,13.3,30.27,NE,50,0.0,0.0,49,0.00,,SCT,0.00,VWS V14.01,2013-03-29 05:45:00,
2013-03-29 01:50:00,30.1,13.3,30.27,NE,50,0.0,0.0,49,0.00,,SCT,0.00,VWS V14.01,2013-03-29 05:50:00,
2013-03-29 01:55:00,30.1,13.3,30.27,NE,50,0.0,0.0,49,0.00,,SCT,0.00,VWS V14.01,2013-03-29 05:55:00,
2013-03-29 02:00:00,30.1,13.3,30.27,NE,50,0.0,0.0,49,0.00,,SCT,0.00,VWS V14.01,2013-03-29 06:00:00,
2013-03-29 02:05:00,30.3,13.4,30.27,NE,50,0.0,0.0,49,0.00,,SCT,0.00,VWS V14.01,2013-03-29 06:05:00,
2013-03-29 02:10:00,30.3,13.4,30.27,NE,50,0.0,0.0,49,0.00,,SCT,0.00,VWS V14.01,2013-03-29 06:10:00,
2013-03-29 02:15:00,30.3,13.4,30.27,NE,50,0.0,0.0,49,0.00,,SCT,0.00,VWS V14.01,2013-03-29 06:15:00,
2013-03-29 02:20:00,30.3,13.4,30.27,NE,50,0.0,0.0,49,0.00,,SCT,0.00,VWS V14.01,2013-03-29 06:20:00,
2013-03-29 02:25:00,30.3,13.4,30.27,NE,50,0.0,0.0,49,0.00,,SCT,0.00,VWS V14.01,2013-03-29 06:25:00,
2013-03-29 02:30:00,30.3,13.4,30.27,NE,50,0.0,0.0,49,0.00,,SCT,0.00,VWS V14.01,2013-03-29 06:30:00,
2013-03-29 02:35:00,30.1,13.3,30.27,NE,50,0.0,0.0,49,0.00,,SCT,0.00,VWS V14.01,2013-03-29 06:35:00,
2013-03-29 02:40:00,29.7,12.9,30.27,NE,50,0.0,0.0,49,0.00,,SCT,0.00,VWS V14.01,2013-03-29 06:40:00,
2013-03-29 02:45:00,29.6,12.8,30.27,NE,50,0.0,0.0,49,0.00,,SCT,0.00,VWS V14.01,2013-03-29 06:45:00,
2013-03-29 02:50:00,29.2,12.4,30.27,NE,50,0.0,0.0,49,0.00,,SCT,0.00,VWS V14.01,2013-03-29 06:50:00,
2013-03-29 02:55:00,28.8,12.1,30.27,NE,50,0.0,0.0,49,0.00,,SCT,0.00,VWS V14.01,2013-03-29 06:55:00,
2013-03-29 03:00:00,28.7,11.9,30.27,NE,50,0.0,0.0,49,0.00,,SCT,0.00,VWS V14.01,2013-03-29 07:00:00,
2013-03-29 03:05:00,28.7,11.9,30.27,NE,50,0.0,0.0,49,0.00,,SCT,0.00,VWS V14.01,2013-03-29 07:05:00,
2013-03-29 03:10:00,28.5,11.8,30.27,NE,50,0.0,0.0,49,0.00,,SCT,0.00,VWS V14.01,2013-03-29 07:10:00,
2013-03-29 03:15:00,28.3,11.6,30.27,NE,50,0.0,0.0,49,0.00,,SCT,0.00,VWS V14.01,2013-03-29 07:15:00,
2013-03-29 03:20:00,28.1,14.1,30.27,NE,50,0.0,0.0,55,0.00,,SCT,0.00,VWS V14.01,2013-03-29 07:20:00,
2013-03-29 03:25:00,28.1,14.5,30.27,NE,50,0.0,0.0,56,0.00,,SCT,0.00,VWS V14.01,2013-03-29 07:25:00,
2013-03-29 03:30:00,28.1,14.5,30.27,NE,50,0.0,0.0,56,0.00,,SCT,0.00,VWS V14.01,2013-03-29 07:30:00,
2013-03-29 03:35:00,28.1,14.5,30.27,NE,50,0.0,0.0,56,0.00,,SCT,0.00,VWS V14.01,2013-03-29 07:35:00,
2013-03-29 03:40:00,28.1,14.9,30.27,NE,50,2.7,3.1,57,0.00,,SCT,0.00,VWS V14.01,2013-03-29 07:40:00,
2013-03-29 03:45:00,28.1,14.9,30.27,NE,50,0.0,0.0,57,0.00,,SCT,0.00,VWS V14.01,2013-03-29 07:45:00,
2013-03-29 03:50:00,28.1,14.9,30.27,NE,50,0.0,0.0,57,0.00,,SCT,0.00,VWS V14.01,2013-03-29 07:50:00,
2013-03-29 03:54:00,28.1,15.3,30.27,NE,50,0.0,0.0,58,0.00,,SCT,0.00,VWS V14.01,2013-03-29 07:54:00,
2013-03-29 03:59:00,28.1,15.3,30.27,NE,50,0.0,0.0,58,0.00,,SCT,0.00,VWS V14.01,2013-03-29 07:59:00,
2013-03-29 04:04:00,28.1,15.3,30.27,NE,50,0.0,0.0,58,0.00,,SCT,0.00,VWS V14.01,2013-03-29 08:04:00,
2013-03-29 04:09:00,28.1,15.3,30.27,NE,50,0.0,0.0,58,0.00,,SCT,0.00,VWS V14.01,2013-03-29 08:09:00,
2013-03-29 04:14:00,28.1,15.3,30.27,NE,50,0.0,0.0,58,0.00,,SCT,0.00,VWS V14.01,2013-03-29 08:14:00,
2013-03-29 04:19:00,28.1,15.3,30.27,NE,50,0.0,0.0,58,0.00,,SCT,0.00,VWS V14.01,2013-03-29 08:19:00,
2013-03-29 04:24:00,28.1,15.3,30.27,NE,50,0.0,0.0,58,0.00,,SCT,0.00,VWS V14.01,2013-03-29 08:24:00,
2013-03-29 04:29:00,27.8,14.9,30.27,NE,50,0.0,0.0,58,0.00,,SCT,0.00,VWS V14.01,2013-03-29 08:29:00,
2013-03-29 04:34:00,27.8,14.9,30.27,NE,50,0.0,0.0,58,0.00,,SCT,0.00,VWS V14.01,2013-03-29 08:34:00,
2013-03-29 04:39:00,27.6,14.8,30.27,NE,50,0.0,0.0,58,0.00,,SCT,0.00,VWS V14.01,2013-03-29 08:39:00,
2013-03-29 04:44:00,27.6,14.8,30.27,NE,50,0.0,0.0,58,0.00,,SCT,0.00,VWS V14.01,2013-03-29 08:44:00,
2013-03-29 04:49:00,27.6,14.8,30.27,NE,50,0.0,0.0,58,0.00,,SCT,0.00,VWS V14.01,2013-03-29 08:49:00,
2013-03-29 04:54:00,27.6,15.1,30.27,NE,50,2.7,2.7,59,0.00,,SCT,0.00,VWS V14.01,2013-03-29 08:54:00,
2013-03-29 04:59:00,27.6,15.1,30.27,NE,50,2.7,2.7,59,0.00,,SCT,0.00,VWS V14.01,2013-03-29 08:59:00,
2013-03-29 05:04:00,27.8,15.3,30.27,NE,50,2.7,2.7,59,0.00,,SCT,0.00,VWS V14.01,2013-03-29 09:04:00,
2013-03-29 05:09:00,27.9,15.5,30.27,NE,50,2.7,2.7,59,0.00,,SCT,0.00,VWS V14.01,2013-03-29 09:09:00,
2013-03-29 05:14:00,27.9,15.5,30.27,NE,50,2.7,2.7,59,0.00,,SCT,0.00,VWS V14.01,2013-03-29 09:14:00,
2013-03-29 05:19:00,28.1,16.0,30.27,West,273,0.0,0.0,60,0.00,,SCT,0.00,VWS V14.01,2013-03-29 09:19:00,
2013-03-29 05:24:00,27.9,15.9,30.27,West,273,0.0,0.0,60,0.00,,SCT,0.00,VWS V14.01,2013-03-29 09:24:00,
2013-03-29 05:29:00,27.9,15.5,30.27,West,273,0.0,0.0,59,0.00,,SCT,0.00,VWS V14.01,2013-03-29 09:29:00,
2013-03-29 05:34:00,27.8,15.3,30.27,West,273,3.1,3.1,59,0.00,,SCT,0.00,VWS V14.01,2013-03-29 09:34:00,
2013-03-29 05:39:00,27.8,15.3,30.27,West,273,3.1,3.1,59,0.00,,SCT,0.00,VWS V14.01,2013-03-29 09:39:00,
2013-03-29 05:44:00,27.8,15.3,30.27,West,273,3.1,4.0,59,0.00,,SCT,0.00,VWS V14.01,2013-03-29 09:44:00,
2013-03-29 05:49:00,27.9,15.9,30.27,West,268,2.7,3.1,60,0.00,,SCT,0.00,VWS V14.01,2013-03-29 09:49:00,
2013-03-29 05:54:00,27.8,15.3,30.27,West,268,0.0,0.0,59,0.00,,SCT,0.00,VWS V14.01,2013-03-29 09:54:00,
2013-03-29 05:59:00,27.6,15.5,30.27,West,268,0.0,0.0,60,0.00,,SCT,0.00,VWS V14.01,2013-03-29 09:59:00,
2013-03-29 06:04:00,27.4,15.4,30.27,West,268,0.0,0.0,60,0.00,,SCT,0.00,VWS V14.01,2013-03-29 10:04:00,
2013-03-29 06:09:00,27.0,15.0,30.27,West,268,0.0,0.0,60,0.00,,SCT,0.00,VWS V14.01,2013-03-29 10:09:00,
2013-03-29 06:14:00,27.0,15.0,30.27,West,268,0.0,0.0,60,0.00,,SCT,0.00,VWS V14.01,2013-03-29 10:14:00,
2013-03-29 06:19:00,27.0,15.0,30.27,West,268,2.7,2.7,60,0.00,,SCT,0.00,VWS V14.01,2013-03-29 10:19:00,
2013-03-29 06:24:00,27.2,15.2,30.27,West,268,3.1,3.1,60,0.00,,SCT,0.00,VWS V14.01,2013-03-29 10:24:00,
2013-03-29 06:29:00,27.2,15.2,30.27,West,268,2.7,3.1,60,0.00,,SCT,0.00,VWS V14.01,2013-03-29 10:29:00,
2013-03-29 06:34:00,27.2,15.2,30.27,West,268,0.0,0.0,60,0.00,,SCT,0.00,VWS V14.01,2013-03-29 10:34:00,
2013-03-29 06:39:00,27.2,15.2,30.27,West,268,0.0,0.0,60,0.00,,SCT,0.00,VWS V14.01,2013-03-29 10:39:00,
2013-03-29 06:44:00,27.0,15.0,30.27,West,268,0.0,0.0,60,0.00,,SCT,0.00,VWS V14.01,2013-03-29 10:44:00,
2013-03-29 06:49:00,27.0,15.4,30.27,West,268,0.0,0.0,61,0.00,,SCT,0.00,VWS V14.01,2013-03-29 10:49:00,
2013-03-29 06:54:00,26.9,15.2,30.27,West,268,0.0,0.0,61,0.00,,SCT,0.00,VWS V14.01,2013-03-29 10:54:00,
2013-03-29 06:59:00,26.9,15.2,30.27,West,268,0.0,0.0,61,0.00,,SCT,0.00,VWS V14.01,2013-03-29 10:59:00,
2013-03-29 07:04:00,26.9,15.2,30.27,West,268,0.0,0.0,61,0.00,,SCT,0.00,VWS V14.01,2013-03-29 11:04:00,
2013-03-29 07:09:00,26.9,15.2,30.27,West,268,2.7,2.7,61,0.00,,SCT,0.00,VWS V14.01,2013-03-29 11:09:00,
2013-03-29 07:14:00,26.9,15.2,30.27,West,268,3.1,3.1,61,0.00,,SCT,0.00,VWS V14.01,2013-03-29 11:14:00,
2013-03-29 07:19:00,27.0,15.8,30.27,West,268,0.0,0.0,62,0.00,,SCT,0.00,VWS V14.01,2013-03-29 11:19:00,
2013-03-29 07:24:00,27.0,15.8,30.27,West,268,0.0,0.0,62,0.00,,SCT,0.00,VWS V14.01,2013-03-29 11:24:00,
2013-03-29 07:29:00,27.0,15.8,30.27,West,268,0.0,0.0,62,0.00,,SCT,0.00,VWS V14.01,2013-03-29 11:29:00,
2013-03-29 07:34:00,27.6,16.3,30.27,West,268,0.0,0.0,62,0.00,,SCT,0.00,VWS V14.01,2013-03-29 11:34:00,
2013-03-29 07:39:00,27.9,17.0,30.27,West,268,0.0,0.0,63,0.00,,SCT,0.00,VWS V14.01,2013-03-29 11:39:00,
2013-03-29 07:44:00,28.1,17.2,30.27,West,268,0.0,0.0,63,0.00,,SCT,0.00,VWS V14.01,2013-03-29 11:44:00,
2013-03-29 07:49:00,28.7,17.3,30.27,West,268,3.1,3.1,62,0.00,,SCT,0.00,VWS V14.01,2013-03-29 11:49:00,
2013-03-29 07:54:00,29.2,18.2,30.27,West,268,2.7,2.7,63,0.00,,SCT,0.00,VWS V14.01,2013-03-29 11:54:00,
2013-03-29 07:59:00,29.7,18.7,30.27,West,266,3.1,3.6,63,0.00,,SCT,0.00,VWS V14.01,2013-03-29 11:59:00,
2013-03-29 08:04:00,30.6,19.5,30.27,West,260,2.7,4.0,63,0.00,,SCT,0.00,VWS V14.01,2013-03-29 12:04:00,
2013-03-29 08:09:00,31.4,20.2,30.27,WSW,253,3.6,4.0,63,0.00,,SCT,0.00,VWS V14.01,2013-03-29 12:09:00,
2013-03-29 08:14:00,32.4,21.3,30.27,WSW,252,3.6,3.6,63,0.00,,SCT,0.00,VWS V14.01,2013-03-29 12:14:00,
2013-03-29 08:19:00,33.3,22.1,30.27,West,264,5.4,5.4,63,0.00,,SCT,0.00,VWS V14.01,2013-03-29 12:19:00,
2013-03-29 08:24:00,33.9,22.6,30.27,WSW,252,3.1,3.6,63,0.00,,SCT,0.00,VWS V14.01,2013-03-29 12:24:00,
2013-03-29 08:29:00,34.4,22.8,30.27,WSW,246,3.1,4.5,62,0.00,,SCT,0.00,VWS V14.01,2013-03-29 12:29:00,
2013-03-29 08:34:00,35.5,23.8,30.27,WSW,247,4.0,5.4,62,0.00,,SCT,0.00,VWS V14.01,2013-03-29 12:34:00,
2013-03-29 08:39:00,37.1,25.3,30.27,WSW,250,5.4,5.8,62,0.00,,SCT,0.00,VWS V14.01,2013-03-29 12:39:00,
2013-03-29 08:44:00,38.6,25.9,30.27,WSW,247,4.5,5.4,60,0.00,,SCT,0.00,VWS V14.01,2013-03-29 12:44:00,
2013-03-29 08:49:00,38.7,25.2,30.27,West,263,4.0,4.5,58,0.00,,SCT,0.00,VWS V14.01,2013-03-29 12:49:00,
2013-03-29 08:54:00,38.7,24.4,30.27,WSW,256,4.0,4.9,56,0.00,,SCT,0.00,VWS V14.01,2013-03-29 12:54:00,
2013-03-29 08:59:00,38.7,23.1,30.27,WSW,246,3.6,3.6,53,0.00,,SCT,0.00,VWS V14.01,2013-03-29 12:59:00,
2013-03-29 09:04:00,38.7,21.7,30.27,WSW,251,4.0,4.5,50,0.00,,SCT,0.00,VWS V14.01,2013-03-29 13:04:00,
2013-03-29 09:09:00,38.7,20.8,30.27,WSW,248,3.6,3.6,48,0.00,,SCT,0.00,VWS V14.01,2013-03-29 13:09:00,
2013-03-29 09:14:00,38.7,19.2,30.27,WSW,241,3.1,3.6,45,0.00,,SCT,0.00,VWS V14.01,2013-03-29 13:14:00,
2013-03-29 09:19:00,38.7,18.7,30.27,WSW,247,3.1,3.1,44,0.00,,SCT,0.00,VWS V14.01,2013-03-29 13:19:00,
2013-03-29 09:24:00,38.7,17.6,30.27,WSW,257,2.7,3.1,42,0.00,,SCT,0.00,VWS V14.01,2013-03-29 13:24:00,
2013-03-29 09:29:00,38.7,16.5,30.27,West,259,3.1,3.1,40,0.00,,SCT,0.00,VWS V14.01,2013-03-29 13:29:00,
2013-03-29 09:34:00,38.7,15.3,30.27,WSW,256,3.1,4.0,38,0.00,,SCT,0.00,VWS V14.01,2013-03-29 13:34:00,
2013-03-29 09:39:00,38.7,15.3,30.27,WSW,253,3.6,3.6,38,0.00,,SCT,0.00,VWS V14.01,2013-03-29 13:39:00,
2013-03-29 09:44:00,38.7,14.7,30.27,WSW,255,3.1,3.1,37,0.00,,SCT,0.00,VWS V14.01,2013-03-29 13:44:00,
2013-03-29 09:49:00,38.7,14.7,30.27,West,269,4.0,4.0,37,0.00,,SCT,0.00,VWS V14.01,2013-03-29 13:49:00,
2013-03-29 09:54:00,38.7,14.1,30.27,WSW,250,3.6,3.6,36,0.00,,SCT,0.00,VWS V14.01,2013-03-29 13:54:00,
2013-03-29 09:59:00,38.7,13.4,30.27,West,271,3.1,3.1,35,0.00,,SCT,0.00,VWS V14.01,2013-03-29 13:59:00,
2013-03-29 10:04:00,38.7,13.4,30.27,West,281,3.1,3.6,35,0.00,,SCT,0.00,VWS V14.01,2013-03-29 14:04:00,
2013-03-29 10:09:00,38.7,12.8,30.27,WSW,257,2.7,3.1,34,0.00,,SCT,0.00,VWS V14.01,2013-03-29 14:09:00,
2013-03-29 10:14:00,38.7,12.8,30.27,WSW,248,2.7,3.1,34,0.00,,SCT,0.00,VWS V14.01,2013-03-29 14:14:00,
2013-03-29 10:19:00,38.7,12.8,30.27,WSW,257,3.6,3.6,34,0.00,,SCT,0.00,VWS V14.01,2013-03-29 14:19:00,
2013-03-29 10:24:00,38.7,12.8,30.27,WSW,256,4.5,4.5,34,0.00,,SCT,0.00,VWS V14.01,2013-03-29 14:24:00,
2013-03-29 10:29:00,53.1,24.8,30.29,WNW,289,3.1,3.1,33,0.00,,SCT,0.00,VWS V14.01,2013-03-29 14:29:00,
2013-03-29 10:34:00,53.0,24.6,30.29,WNW,289,3.1,3.1,33,0.00,,SCT,0.00,VWS V14.01,2013-03-29 14:34:00,
2013-03-29 10:39:00,53.5,25.1,30.29,WNW,289,3.1,3.1,33,0.00,,SCT,0.00,VWS V14.01,2013-03-29 14:39:00,
2013-03-29 10:44:00,54.0,-8.7,30.29,WNW,289,3.1,3.1,7,0.00,,SCT,0.00,VWS V14.01,2013-03-29 14:44:00,
2013-03-29 10:49:00,54.2,25.0,30.29,ESE,111,2.7,3.1,32,0.00,,SCT,0.00,VWS V14.01,2013-03-29 14:49:00,
2013-03-29 10:54:00,53.9,24.7,30.29,West,280,4.0,4.0,32,0.00,,SCT,0.00,VWS V14.01,2013-03-29 14:54:00,
2013-03-29 10:59:00,54.0,24.9,30.29,WSW,245,4.0,4.0,32,0.00,,SCT,0.00,VWS V14.01,2013-03-29 14:59:00,
2013-03-29 11:04:00,53.5,24.4,30.29,NNE,27,4.5,4.5,32,0.00,,SCT,0.00,VWS V14.01,2013-03-29 15:04:00,
2013-03-29 11:09:00,53.9,24.7,30.29,NW,306,3.6,3.6,32,0.00,,SCT,0.00,VWS V14.01,2013-03-29 15:09:00,
2013-03-29 11:14:00,54.2,25.0,30.29,North,351,2.7,2.7,32,0.00,,SCT,0.00,VWS V14.01,2013-03-29 15:14:00,
2013-03-29 11:19:00,54.9,25.6,30.29,NE,44,4.9,5.4,32,0.00,,SCT,0.00,VWS V14.01,2013-03-29 15:19:00,
2013-03-29 11:24:00,54.9,25.6,30.29,North,5,0.0,0.0,32,0.00,,SCT,0.00,VWS V14.01,2013-03-29 15:24:00,
2013-03-29 11:29:00,54.8,25.5,30.29,East,95,2.7,3.6,32,0.00,,SCT,0.00,VWS V14.01,2013-03-29 15:29:00,
2013-03-29 11:34:00,55.1,25.8,30.29,SSE,156,5.4,6.3,32,0.00,,SCT,0.00,VWS V14.01,2013-03-29 15:34:00,
2013-03-29 11:39:00,54.2,25.0,30.29,SW,232,3.1,3.1,32,0.00,,SCT,0.00,VWS V14.01,2013-03-29 15:39:00,
2013-03-29 11:44:00,54.2,25.0,30.29,WNW,288,3.1,4.0,32,0.00,,SCT,0.00,VWS V14.01,2013-03-29 15:44:00,
2013-03-29 11:49:00,55.3,26.0,30.29,WSW,251,7.8,7.8,32,0.00,,SCT,0.00,VWS V14.01,2013-03-29 15:49:00,
2013-03-29 11:54:00,55.8,25.7,30.29,WSW,248,4.5,4.5,31,0.00,,SCT,0.00,VWS V14.01,2013-03-29 15:54:00,
2013-03-29 11:59:00,56.4,26.1,30.29,WSW,257,3.1,5.8,31,0.00,,SCT,0.00,VWS V14.01,2013-03-29 15:59:00,
2013-03-29 12:04:00,56.4,26.1,30.29,NE,37,2.7,4.5,31,0.00,,SCT,0.00,VWS V14.01,2013-03-29 16:04:00,
2013-03-29 12:09:00,55.5,23.8,30.29,NNW,327,4.0,4.0,29,0.00,,SCT,0.00,VWS V14.01,2013-03-29 16:09:00,
2013-03-29 12:14:00,55.7,23.9,30.29,WSW,254,4.0,4.0,29,0.00,,SCT,0.00,VWS V14.01,2013-03-29 16:14:00,
2013-03-29 12:19:00,56.2,24.4,30.29,WSW,256,0.0,3.1,29,0.00,,SCT,0.00,VWS V14.01,2013-03-29 16:19:00,
2013-03-29 12:24:00,56.9,25.0,30.29,NW,318,4.5,4.5,29,0.00,,SCT,0.00,VWS V14.01,2013-03-29 16:24:00,
2013-03-29 12:29:00,57.3,25.3,30.29,West,275,4.5,6.9,29,0.00,,SCT,0.00,VWS V14.01,2013-03-29 16:29:00,
2013-03-29 12:33:00,57.5,25.5,30.29,WSW,248,4.5,4.5,29,0.00,,SCT,0.00,VWS V14.01,2013-03-29 16:33:00,
2013-03-29 12:39:00,57.8,25.8,30.29,West,279,4.9,4.9,29,0.00,,SCT,0.00,VWS V14.01,2013-03-29 16:39:00,
2013-03-29 12:43:00,57.8,25.8,30.29,WSW,253,4.9,7.4,29,0.00,,SCT,0.00,VWS V14.01,2013-03-29 16:43:00,
2013-03-29 12:48:00,57.8,25.8,30.29,WNW,296,3.1,4.5,29,0.00,,SCT,0.00,VWS V14.01,2013-03-29 16:48:00,
2013-03-29 12:53:00,58.4,26.3,30.29,West,259,7.8,7.8,29,0.00,,SCT,0.00,VWS V14.01,2013-03-29 16:53:00,
2013-03-29 12:58:00,58.2,26.1,30.29,SW,236,4.0,5.8,29,0.00,,SCT,0.00,VWS V14.01,2013-03-29 16:58:00,
2013-03-29 13:03:00,58.4,26.3,30.29,WNW,286,0.0,4.5,29,0.00,,SCT,0.00,VWS V14.01,2013-03-29 17:03:00,
2013-03-29 13:08:00,58.4,26.3,30.29,WSW,243,0.0,5.4,29,0.00,,SCT,0.00,VWS V14.01,2013-03-29 17:08:00,
2013-03-29 13:13:00,58.7,26.6,30.29,WSW,254,0.0,3.6,29,0.00,,SCT,0.00,VWS V14.01,2013-03-29 17:13:00,
2013-03-29 13:18:00,58.9,26.7,30.29,SSE,159,4.5,6.9,29,0.00,,SCT,0.00,VWS V14.01,2013-03-29 17:18:00,
2013-03-29 13:23:00,59.1,26.0,30.29,WSW,244,7.4,7.4,28,0.00,,SCT,0.00,VWS V14.01,2013-03-29 17:23:00,
2013-03-29 13:28:00,59.4,26.3,30.29,SW,235,5.8,5.8,28,0.00,,SCT,0.00,VWS V14.01,2013-03-29 17:28:00,
2013-03-29 13:33:00,59.8,26.6,30.29,WSW,256,4.9,6.9,28,0.00,,SCT,0.00,VWS V14.01,2013-03-29 17:33:00,
2013-03-29 13:38:00,59.6,26.5,30.29,South,179,3.1,4.5,28,0.00,,SCT,0.00,VWS V14.01,2013-03-29 17:38:00,
2013-03-29 13:43:00,59.6,26.5,30.29,WNW,296,2.7,4.5,28,0.00,,SCT,0.00,VWS V14.01,2013-03-29 17:43:00,
2013-03-29 13:48:00,58.7,26.6,30.29,West,277,3.1,4.5,29,0.00,,SCT,0.00,VWS V14.01,2013-03-29 17:48:00,
2013-03-29 13:53:00,58.4,26.3,30.29,WSW,257,3.6,6.3,29,0.00,,SCT,0.00,VWS V14.01,2013-03-29 17:53:00,
2013-03-29 13:58:00,59.6,26.5,30.29,West,275,5.4,7.8,28,0.00,,SCT,0.00,VWS V14.01,2013-03-29 17:58:00,
2013-03-29 14:03:00,59.4,26.3,30.29,WNW,292,4.0,5.8,28,0.00,,SCT,0.00,VWS V14.01,2013-03-29 18:03:00,
2013-03-29 14:08:00,58.7,26.6,30.29,West,270,10.5,10.5,29,0.00,,SCT,0.00,VWS V14.01,2013-03-29 18:08:00,
2013-03-29 14:13:00,59.1,26.0,30.29,West,275,5.4,7.8,28,0.00,,SCT,0.00,VWS V14.01,2013-03-29 18:13:00,
2013-03-29 14:18:00,59.4,26.3,30.29,West,275,5.8,6.3,28,0.00,,SCT,0.00,VWS V14.01,2013-03-29 18:18:00,
2013-03-29 14:23:00,60.2,27.0,30.29,SSE,161,7.8,7.8,28,0.00,,SCT,0.00,VWS V14.01,2013-03-29 18:23:00,
2013-03-29 14:28:00,60.0,26.8,30.29,West,269,4.9,8.7,28,0.00,,SCT,0.00,VWS V14.01,2013-03-29 18:28:00,
2013-03-29 14:33:00,60.5,27.3,30.29,WSW,256,5.8,7.4,28,0.00,,SCT,0.00,VWS V14.01,2013-03-29 18:33:00,
2013-03-29 14:39:00,62.0,28.5,30.29,WSW,254,4.5,4.9,28,0.00,,SCT,0.00,VWS V14.01,2013-03-29 18:39:00,
2013-03-29 14:44:00,62.9,28.4,30.29,West,273,4.5,5.4,27,0.00,,SCT,0.00,VWS V14.01,2013-03-29 18:44:00,
2013-03-29 14:49:00,63.4,28.9,30.29,West,262,6.7,6.9,27,0.00,,SCT,0.00,VWS V14.01,2013-03-29 18:49:00,
2013-03-29 14:53:00,62.0,25.8,30.29,WSW,237,0.0,3.6,25,0.00,,SCT,0.00,VWS V14.01,2013-03-29 18:53:00,
2013-03-29 14:58:00,60.0,25.0,30.29,WSW,251,2.7,4.5,26,0.00,,SCT,0.00,VWS V14.01,2013-03-29 18:58:00,
2013-03-29 15:03:00,59.6,24.7,30.29,WNW,299,4.0,5.4,26,0.00,,SCT,0.00,VWS V14.01,2013-03-29 19:03:00,
2013-03-29 15:08:00,60.7,25.6,30.29,West,266,6.7,7.8,26,0.00,,SCT,0.00,VWS V14.01,2013-03-29 19:08:00,
2013-03-29 15:13:00,60.9,24.9,30.29,NW,321,4.0,5.4,25,0.00,,SCT,0.00,VWS V14.01,2013-03-29 19:13:00,
2013-03-29 15:18:00,60.5,25.5,30.29,NW,311,0.0,0.0,26,0.00,,SCT,0.00,VWS V14.01,2013-03-29 19:18:00,
2013-03-29 15:23:00,60.9,24.9,30.29,SW,230,4.5,5.4,25,0.00,,SCT,0.00,VWS V14.01,2013-03-29 19:23:00,
2013-03-29 15:28:00,62.0,28.5,30.29,WNW,302,4.5,5.8,28,0.00,,SCT,0.00,VWS V14.01,2013-03-29 19:28:00,
2013-03-29 15:33:00,62.5,28.1,30.29,West,262,4.9,7.8,27,0.00,,SCT,0.00,VWS V14.01,2013-03-29 19:33:00,
2013-03-29 15:38:00,62.5,28.1,30.29,SSW,204,5.8,6.7,27,0.00,,SCT,0.00,VWS V14.01,2013-03-29 19:38:00,
2013-03-29 15:43:00,62.0,25.8,30.29,WNW,286,6.7,6.7,25,0.00,,SCT,0.00,VWS V14.01,2013-03-29 19:43:00,
2013-03-29 15:48:00,62.5,26.2,30.29,West,273,4.9,9.2,25,0.00,,SCT,0.00,VWS V14.01,2013-03-29 19:48:00,
2013-03-29 15:53:00,62.1,25.9,30.29,NW,304,2.7,5.4,25,0.00,,SCT,0.00,VWS V14.01,2013-03-29 19:53:00,
2013-03-29 15:59:00,61.4,25.3,30.29,WNW,289,3.1,4.0,25,0.00,,SCT,0.00,VWS V14.01,2013-03-29 19:59:00,
2013-03-29 16:03:00,61.6,25.5,30.29,West,266,9.6,9.6,25,0.00,,SCT,0.00,VWS V14.01,2013-03-29 20:03:00,
2013-03-29 16:09:00,61.1,25.0,30.29,West,271,3.1,7.4,25,0.00,,SCT,0.00,VWS V14.01,2013-03-29 20:09:00,
2013-03-29 16:14:00,60.3,25.3,30.29,WNW,284,4.0,7.8,26,0.00,,SCT,0.00,VWS V14.01,2013-03-29 20:14:00,
2013-03-29 16:19:00,59.8,24.9,30.29,WNW,286,4.0,5.8,26,0.00,,SCT,0.00,VWS V14.01,2013-03-29 20:19:00,
2013-03-29 16:24:00,59.3,24.4,30.29,WSW,258,4.9,6.3,26,0.00,,SCT,0.00,VWS V14.01,2013-03-29 20:24:00,
2013-03-29 16:29:00,58.9,24.1,30.29,West,262,3.6,6.3,26,0.00,,SCT,0.00,VWS V14.01,2013-03-29 20:29:00,
2013-03-29 16:34:00,59.1,24.2,30.29,West,274,5.4,5.8,26,0.00,,SCT,0.00,VWS V14.01,2013-03-29 20:34:00,
2013-03-29 16:39:00,58.7,24.0,30.29,West,270,3.6,3.6,26,0.00,,SCT,0.00,VWS V14.01,2013-03-29 20:39:00,
2013-03-29 16:44:00,58.5,23.8,30.29,WSW,250,7.4,9.2,26,0.00,,SCT,0.00,VWS V14.01,2013-03-29 20:44:00,
2013-03-29 16:49:00,58.2,23.5,30.29,ESE,117,5.4,5.4,26,0.00,,SCT,0.00,VWS V14.01,2013-03-29 20:49:00,
2013-03-29 16:54:00,57.6,23.0,30.29,WNW,293,4.0,4.0,26,0.00,,SCT,0.00,VWS V14.01,2013-03-29 20:54:00,
2013-03-29 16:59:00,57.6,23.0,30.29,West,261,5.8,6.9,26,0.00,,SCT,0.00,VWS V14.01,2013-03-29 20:59:00,
2013-03-29 17:04:00,57.6,23.0,30.29,WSW,247,3.6,4.9,26,0.00,,SCT,0.00,VWS V14.01,2013-03-29 21:04:00,
2013-03-29 17:09:00,57.6,23.0,30.29,West,263,2.7,5.8,26,0.00,,SCT,0.00,VWS V14.01,2013-03-29 21:09:00,
2013-03-29 17:13:00,57.6,23.0,30.29,West,271,4.5,4.9,26,0.00,,SCT,0.00,VWS V14.01,2013-03-29 21:13:00,
2013-03-29 17:18:00,57.8,23.2,30.29,WSW,250,4.9,5.4,26,0.00,,SCT,0.00,VWS V14.01,2013-03-29 21:18:00,
2013-03-29 17:23:00,57.6,23.0,30.29,WSW,237,5.4,5.4,26,0.00,,SCT,0.00,VWS V14.01,2013-03-29 21:23:00,
2013-03-29 17:28:00,57.5,22.9,30.29,SW,218,3.6,4.9,26,0.00,,SCT,0.00,VWS V14.01,2013-03-29 21:28:00,
2013-03-29 17:33:00,57.8,23.2,30.29,West,277,6.3,8.3,26,0.00,,SCT,0.00,VWS V14.01,2013-03-29 21:33:00,
2013-03-29 17:38:00,57.8,23.2,30.29,West,263,4.9,4.9,26,0.00,,SCT,0.00,VWS V14.01,2013-03-29 21:38:00,
2013-03-29 17:43:00,58.0,23.3,30.29,WSW,248,0.0,3.1,26,0.00,,SCT,0.00,VWS V14.01,2013-03-29 21:43:00,
2013-03-29 17:48:00,58.0,23.3,30.29,WNW,282,5.8,5.8,26,0.00,,SCT,0.00,VWS V14.01,2013-03-29 21:48:00,
2013-03-29 17:53:00,58.0,23.3,30.29,West,264,3.6,5.4,26,0.00,,SCT,0.00,VWS V14.01,2013-03-29 21:53:00,
2013-03-29 17:58:00,57.8,23.2,30.29,West,262,4.0,5.8,26,0.00,,SCT,0.00,VWS V14.01,2013-03-29 21:58:00,
2013-03-29 18:03:00,57.6,23.0,30.29,WSW,255,4.9,5.4,26,0.00,,SCT,0.00,VWS V14.01,2013-03-29 22:03:00,
2013-03-29 18:08:00,57.5,22.9,30.29,West,268,4.9,6.3,26,0.00,,SCT,0.00,VWS V14.01,2013-03-29 22:08:00,
2013-03-29 18:13:00,57.1,22.6,30.29,WSW,244,3.6,8.7,26,0.00,,SCT,0.00,VWS V14.01,2013-03-29 22:13:00,
2013-03-29 18:18:00,57.3,22.7,30.29,WSW,258,6.7,6.7,26,0.00,,SCT,0.00,VWS V14.01,2013-03-29 22:18:00,
2013-03-29 18:23:00,57.6,23.0,30.29,West,263,0.0,2.7,26,0.00,,SCT,0.00,VWS V14.01,2013-03-29 22:23:00,
2013-03-29 18:28:00,57.6,23.0,30.29,WSW,241,4.9,4.9,26,0.00,,SCT,0.00,VWS V14.01,2013-03-29 22:28:00,
2013-03-29 18:33:00,57.6,23.0,30.29,West,264,4.9,4.9,26,0.00,,SCT,0.00,VWS V14.01,2013-03-29 22:33:00,
2013-03-29 18:38:00,57.6,23.0,30.29,West,270,0.0,4.5,26,0.00,,SCT,0.00,VWS V14.01,2013-03-29 22:38:00,
2013-03-29 18:43:00,57.5,22.9,30.29,WSW,258,6.3,7.8,26,0.00,,SCT,0.00,VWS V14.01,2013-03-29 22:43:00,
2013-03-29 18:48:00,57.1,22.6,30.29,West,269,4.0,4.0,26,0.00,,SCT,0.00,VWS V14.01,2013-03-29 22:48:00,
2013-03-29 18:53:00,56.7,22.2,30.29,West,273,4.5,5.4,26,0.00,,SCT,0.00,VWS V14.01,2013-03-29 22:53:00,
2013-03-29 18:58:00,56.2,21.8,30.29,SW,236,4.0,5.8,26,0.00,,SCT,0.00,VWS V14.01,2013-03-29 22:58:00,
2013-03-29 19:03:00,55.7,21.3,30.29,WNW,298,4.5,4.5,26,0.00,,SCT,0.00,VWS V14.01,2013-03-29 23:03:00,
2013-03-29 19:08:00,55.1,21.8,30.29,West,273,3.1,3.6,27,0.00,,SCT,0.00,VWS V14.01,2013-03-29 23:08:00,
2013-03-29 19:13:00,54.6,21.3,30.29,WNW,282,2.7,3.1,27,0.00,,SCT,0.00,VWS V14.01,2013-03-29 23:13:00,
2013-03-29 19:18:00,54.0,20.8,30.29,WSW,249,0.0,2.7,27,0.00,,SCT,0.00,VWS V14.01,2013-03-29 23:18:00,
2013-03-29 19:23:00,53.1,20.0,30.29,WSW,250,3.1,3.6,27,0.00,,SCT,0.00,VWS V14.01,2013-03-29 23:23:00,
2013-03-29 19:28:00,52.1,19.1,30.29,WSW,247,3.6,3.6,27,0.00,,SCT,0.00,VWS V14.01,2013-03-29 23:28:00,
2013-03-29 19:33:00,51.5,19.5,30.29,WSW,247,0.0,2.7,28,0.00,,SCT,0.00,VWS V14.01,2013-03-29 23:33:00,
2013-03-29 19:38:00,50.8,18.9,30.29,WSW,237,0.0,3.1,28,0.00,,SCT,0.00,VWS V14.01,2013-03-29 23:38:00,
2013-03-29 19:43:00,50.1,18.3,30.29,WSW,237,0.0,0.0,28,0.00,,SCT,0.00,VWS V14.01,2013-03-29 23:43:00,
2013-03-29 19:48:00,49.7,18.0,30.29,WSW,237,0.0,0.0,28,0.00,,SCT,0.00,VWS V14.01,2013-03-29 23:48:00,
2013-03-29 19:53:00,49.2,17.5,30.29,WSW,237,0.0,0.0,28,0.00,,SCT,0.00,VWS V14.01,2013-03-29 23:53:00,
2013-03-29 19:58:00,49.0,17.3,30.29,WSW,237,0.0,0.0,28,0.00,,SCT,0.00,VWS V14.01,2013-03-29 23:58:00,
2013-03-29 20:03:00,49.0,17.3,30.29,WSW,237,0.0,0.0,28,0.00,,SCT,0.00,VWS V14.01,2013-03-30 00:03:00,
2013-03-29 20:08:00,49.0,17.3,30.29,WSW,237,0.0,0.0,28,0.00,,SCT,0.00,VWS V14.01,2013-03-30 00:08:00,
2013-03-29 20:13:00,49.2,17.5,30.29,WSW,237,0.0,0.0,28,0.00,,SCT,0.00,VWS V14.01,2013-03-30 00:13:00,
2013-03-29 20:18:00,49.0,17.3,30.29,WSW,237,0.0,0.0,28,0.00,,SCT,0.00,VWS V14.01,2013-03-30 00:18:00,
2013-03-29 20:23:00,49.0,17.3,30.29,WSW,237,0.0,0.0,28,0.00,,SCT,0.00,VWS V14.01,2013-03-30 00:23:00,
2013-03-29 20:28:00,49.0,17.3,30.29,WSW,237,0.0,0.0,28,0.00,,SCT,0.00,VWS V14.01,2013-03-30 00:28:00,
2013-03-29 20:33:00,49.0,17.3,30.29,WSW,237,0.0,0.0,28,0.00,,SCT,0.00,VWS V14.01,2013-03-30 00:33:00,
2013-03-29 20:38:00,48.6,17.0,30.29,WSW,237,0.0,0.0,28,0.00,,SCT,0.00,VWS V14.01,2013-03-30 00:38:00,
2013-03-29 20:43:00,48.5,16.9,30.29,WSW,237,0.0,0.0,28,0.00,,SCT,0.00,VWS V14.01,2013-03-30 00:43:00,
2013-03-29 20:48:00,48.3,16.7,30.29,WSW,237,0.0,0.0,28,0.00,,SCT,0.00,VWS V14.01,2013-03-30 00:48:00,
2013-03-29 20:53:00,47.9,16.4,30.29,WSW,237,0.0,0.0,28,0.00,,SCT,0.00,VWS V14.01,2013-03-30 00:53:00,
2013-03-29 20:58:00,47.7,18.6,30.29,WSW,237,0.0,0.0,31,0.00,,SCT,0.00,VWS V14.01,2013-03-30 00:58:00,
2013-03-29 21:03:00,47.7,18.6,30.29,WSW,237,0.0,0.0,31,0.00,,SCT,0.00,VWS V14.01,2013-03-30 01:03:00,
2013-03-29 21:08:00,47.7,18.6,30.29,WSW,237,0.0,0.0,31,0.00,,SCT,0.00,VWS V14.01,2013-03-30 01:08:00,
2013-03-29 21:13:00,47.7,18.6,30.29,WSW,237,0.0,0.0,31,0.00,,SCT,0.00,VWS V14.01,2013-03-30 01:13:00,
2013-03-29 21:18:00,47.6,18.4,30.29,WSW,237,0.0,0.0,31,0.00,,SCT,0.00,VWS V14.01,2013-03-30 01:18:00,
2013-03-29 21:23:00,47.4,18.3,30.29,WSW,237,0.0,0.0,31,0.00,,SCT,0.00,VWS V14.01,2013-03-30 01:23:00,
2013-03-29 21:28:00,47.2,18.1,30.29,WSW,237,0.0,0.0,31,0.00,,SCT,0.00,VWS V14.01,2013-03-30 01:28:00,
2013-03-29 21:33:00,47.2,18.1,30.29,WSW,237,0.0,0.0,31,0.00,,SCT,0.00,VWS V14.01,2013-03-30 01:33:00,
2013-03-29 21:38:00,47.0,18.0,30.29,WSW,237,0.0,0.0,31,0.00,,SCT,0.00,VWS V14.01,2013-03-30 01:38:00,
2013-03-29 21:43:00,46.8,17.8,30.29,WSW,237,0.0,0.0,31,0.00,,SCT,0.00,VWS V14.01,2013-03-30 01:43:00,
2013-03-29 21:48:00,47.0,18.0,30.29,WSW,237,0.0,0.0,31,0.00,,SCT,0.00,VWS V14.01,2013-03-30 01:48:00,
2013-03-29 21:53:00,46.8,17.8,30.29,WSW,237,0.0,0.0,31,0.00,,SCT,0.00,VWS V14.01,2013-03-30 01:53:00,
2013-03-29 21:58:00,46.8,17.8,30.29,WSW,237,0.0,0.0,31,0.00,,SCT,0.00,VWS V14.01,2013-03-30 01:58:00,
2013-03-29 22:03:00,46.8,17.8,30.29,WSW,237,0.0,0.0,31,0.00,,SCT,0.00,VWS V14.01,2013-03-30 02:03:00,
2013-03-29 22:08:00,46.5,17.5,30.29,WSW,237,0.0,0.0,31,0.00,,SCT,0.00,VWS V14.01,2013-03-30 02:08:00,
2013-03-29 22:13:00,46.1,17.2,30.29,WSW,237,0.0,0.0,31,0.00,,SCT,0.00,VWS V14.01,2013-03-30 02:13:00,
2013-03-29 22:18:00,45.8,16.9,30.29,WSW,237,0.0,0.0,31,0.00,,SCT,0.00,VWS V14.01,2013-03-30 02:18:00,
2013-03-29 22:23:00,45.6,16.7,30.29,WSW,237,0.0,0.0,31,0.00,,SCT,0.00,VWS V14.01,2013-03-30 02:23:00,
2013-03-29 22:28:00,45.2,16.4,30.29,WSW,237,0.0,0.0,31,0.00,,SCT,0.00,VWS V14.01,2013-03-30 02:28:00,
2013-03-29 22:33:00,44.5,16.5,30.29,WSW,237,0.0,0.0,32,0.00,,SCT,0.00,VWS V14.01,2013-03-30 02:33:00,
2013-03-29 22:38:00,44.1,16.2,30.29,WSW,237,0.0,0.0,32,0.00,,SCT,0.00,VWS V14.01,2013-03-30 02:38:00,
2013-03-29 22:43:00,44.1,16.2,30.29,WSW,237,0.0,0.0,32,0.00,,SCT,0.00,VWS V14.01,2013-03-30 02:43:00,
2013-03-29 22:48:00,44.1,16.2,30.29,WSW,237,0.0,0.0,32,0.00,,SCT,0.00,VWS V14.01,2013-03-30 02:48:00,
2013-03-29 22:53:00,44.0,16.0,30.29,WSW,237,0.0,0.0,32,0.00,,SCT,0.00,VWS V14.01,2013-03-30 02:53:00,
2013-03-29 22:58:00,43.8,15.9,30.29,WSW,237,0.0,0.0,32,0.00,,SCT,0.00,VWS V14.01,2013-03-30 02:58:00,
2013-03-29 23:03:00,43.6,15.7,30.29,WSW,237,0.0,0.0,32,0.00,,SCT,0.00,VWS V14.01,2013-03-30 03:03:00,
2013-03-29 23:09:00,43.6,15.7,30.29,WSW,237,0.0,0.0,32,0.00,,SCT,0.00,VWS V14.01,2013-03-30 03:09:00,
2013-03-29 23:14:00,43.1,15.2,30.29,WSW,237,0.0,0.0,32,0.00,,SCT,0.00,VWS V14.01,2013-03-30 03:14:00,
2013-03-29 23:19:00,42.9,15.1,30.29,WSW,237,0.0,0.0,32,0.00,,SCT,0.00,VWS V14.01,2013-03-30 03:19:00,
2013-03-29 23:24:00,42.7,14.9,30.29,WSW,237,0.0,0.0,32,0.00,,SCT,0.00,VWS V14.01,2013-03-30 03:24:00,
2013-03-29 23:29:00,42.7,16.3,30.29,WSW,237,0.0,0.0,34,0.00,,SCT,0.00,VWS V14.01,2013-03-30 03:29:00,
2013-03-29 23:34:00,42.7,16.3,30.29,WSW,237,0.0,0.0,34,0.00,,SCT,0.00,VWS V14.01,2013-03-30 03:34:00,
2013-03-29 23:39:00,42.9,16.5,30.29,WSW,237,0.0,0.0,34,0.00,,SCT,0.00,VWS V14.01,2013-03-30 03:39:00,
2013-03-29 23:44:00,42.7,16.3,30.29,WSW,237,0.0,0.0,34,0.00,,SCT,0.00,VWS V14.01,2013-03-30 03:44:00,
2013-03-29 23:49:00,42.7,16.3,30.29,WSW,237,0.0,0.0,34,0.00,,SCT,0.00,VWS V14.01,2013-03-30 03:49:00,
2013-03-29 23:54:00,42.7,17.0,30.29,WSW,237,0.0,0.0,35,0.00,,SCT,0.00,VWS V14.01,2013-03-30 03:54:00,
2013-03-29 23:59:00,42.7,16.3,30.29,WSW,237,0.0,0.0,34,0.00,,SCT,0.00,VWS V14.01,2013-03-30 03:59:00,